W2DRT Weather Reports


time (UTC)temp
C
wind
direction
speed
KPH
gust
KPH
rain 1hr
cm
rain 24hr
cm
rain mn
cm
humidity
%
barometer
mb
20260504194831 23 0.0 0.0 0.00 0.00 0.00 27 1010.9
20260504193829 23 0.0 0.0 0.00 0.00 0.00 28 1011.2
20260504192825 23 0.0 0.0 0.00 0.00 0.00 28 1011.2
20260504191821 23 0.0 0.0 0.00 0.00 0.00 27 1011.6
20260504190819 23 0.0 0.0 0.00 0.00 0.00 27 1011.2
20260504185818 23 0.0 0.0 0.00 0.00 0.00 28 1011.9
20260504184817 22 0.0 0.0 0.00 0.00 0.00 29 1011.9
20260504183815 22 0.0 0.0 0.00 0.00 0.00 29 1011.9
20260504182810 22 0.0 0.0 0.00 0.00 0.00 30 1012.3
20260504181810 22 0.0 0.0 0.00 0.00 0.00 32 1012.3
20260504180807 22 0.0 0.0 0.00 0.00 0.00 31 1012.6
20260504175802 22 0.0 0.0 0.00 0.00 0.00 32 1012.6
20260504174803 22 0.0 0.0 0.00 0.00 0.00 34 1012.6
20260504173802 21 0.0 0.0 0.00 0.00 0.00 34 1012.9
20260504172802 21 0.0 0.0 0.00 0.00 0.00 34 1012.9
20260504171800 21 0.0 0.0 0.00 0.00 0.00 36 1012.9
20260504170755 21 0.0 0.0 0.00 0.00 0.00 34 1013.3
20260504150733 17 0.0 0.0 0.00 0.00 0.00 48 1014.6
20260504140731 16 0.0 0.0 0.00 0.00 0.00 53 1015.0
20260504130719 13 0.0 0.0 0.00 0.00 0.00 58 1015.3
20260504110652 9 0.0 0.0 0.00 0.00 0.00 67 1016.0
20260504081621 8 0.0 0.0 0.00 0.00 0.00 58 1015.6
20260504080620 8 0.0 0.0 0.00 0.00 0.00 58 1015.6
20260504050548 8 0.0 0.0 0.00 0.00 0.00 50 1015.0
20260504045548 8 0.0 0.0 0.00 0.00 0.00 49 1015.3
20260504044546 8 0.0 0.0 0.00 0.00 0.00 48 1015.0
20260504043546 8 0.0 0.0 0.00 0.00 0.00 48 1015.0
20260504042546 8 0.0 0.0 0.00 0.00 0.00 48 1015.0
20260504041545 9 0.0 0.0 0.00 0.00 0.00 47 1015.0
20260504040544 9 0.0 0.0 0.00 0.00 0.00 46 1015.0
20260504035543 9 0.0 0.0 0.00 0.00 0.00 45 1014.6
20260504034538 9 0.0 0.0 0.00 0.00 0.00 44 1014.6
20260504033538 10 0.0 0.0 0.00 0.00 0.00 43 1014.6
20260504032538 10 0.0 0.0 0.00 0.00 0.00 42 1014.3
20260504031537 10 0.0 0.0 0.00 0.00 0.00 42 1014.6
20260504030536 10 0.0 0.0 0.00 0.00 0.00 41 1014.3
20260504025535 11 0.0 0.0 0.00 0.00 0.00 40 1014.6
20260504024535 11 0.0 0.0 0.00 0.00 0.00 39 1014.3
20260504023534 11 0.0 0.0 0.00 0.00 0.00 38 1014.6
20260504022532 11 0.0 0.0 0.00 0.00 0.00 38 1014.6
20260504021532 11 0.0 0.0 0.00 0.00 0.00 37 1014.3
20260504020531 11 0.0 0.0 0.00 0.00 0.00 37 1014.3
20260504015530 11 0.0 0.0 0.00 0.00 0.00 36 1014.6
20260504014528 11 0.0 0.0 0.00 0.00 0.00 35 1014.6
20260504013523 11 0.0 0.0 0.00 0.00 0.00 34 1014.0
20260504012523 11 0.0 0.0 0.00 0.00 0.00 34 1014.3
20260504011523 11 0.0 0.0 0.00 0.00 0.00 33 1014.0
20260504010521 12 0.0 0.0 0.00 0.00 0.00 31 1014.0
20260504005520 12 0.0 0.0 0.00 0.00 0.00 30 1013.6
20260504004516 12 0.0 0.0 0.00 0.00 0.00 29 1013.6
20260504003514 12 0.0 0.0 0.00 0.00 0.00 28 1013.3
20260504002514 13 0.0 0.0 0.00 0.00 0.00 27 1013.3
20260504001515 13 0.0 0.0 0.00 0.00 0.00 26 1013.3
20260504000514 13 0.0 0.0 0.00 0.00 0.00 26 1013.3
20260503235515 13 0.0 0.0 0.00 0.00 0.00 22 1013.3
20260503234515 14 0.0 0.0 0.00 0.00 0.00 21 1013.3
20260503233509 14 0.0 0.0 0.00 0.00 0.00 19 1012.9
20260503232508 15 0.0 0.0 0.00 0.00 0.00 19 1012.9
20260503231503 15 0.0 0.0 0.00 0.00 0.00 18 1012.6
20260503230502 15 0.0 0.0 0.00 0.00 0.00 19 1012.6
20260503225503 15 0.0 0.0 0.00 0.00 0.00 18 1012.9
20260503224501 15 0.0 0.0 0.00 0.00 0.00 17 1012.6
20260503223457 15 0.0 0.0 0.00 0.00 0.00 17 1012.6
20260503222456 16 0.0 0.0 0.00 0.00 0.00 12 1012.6
20260503221452 16 0.0 0.0 0.00 0.00 0.00 12 1012.3
20260503220451 17 0.0 0.0 0.00 0.00 0.00 10 1012.6
20260503215451 18 0.0 0.0 0.00 0.00 0.00 10 1012.9
20260503214446 20 0.0 0.0 0.00 0.00 0.00 10 1012.6
20260503213442 20 0.0 0.0 0.00 0.00 0.00 15 1012.6
20260503212441 19 0.0 0.0 0.00 0.00 0.00 15 1012.6
20260503211441 21 0.0 0.0 0.00 0.00 0.00 15 1012.6
20260503210439 20 0.0 0.0 0.00 0.00 0.00 10 1012.6
20260503205437 18 0.0 0.0 0.00 0.00 0.00 10 1012.6
20260503204436 17 0.0 0.0 0.00 0.00 0.00 22 1012.9
20260503203437 17 0.0 0.0 0.00 0.00 0.00 20 1012.9
20260503202431 15 0.0 0.0 0.00 0.00 0.00 24 1012.9
20260503201426 15 0.0 0.0 0.00 0.00 0.00 25 1012.6
20260503200426 15 0.0 0.0 0.00 0.00 0.00 25 1012.9
20260503195420 15 0.0 0.0 0.00 0.00 0.00 25 1012.9